K5LRY-13 Weather Reports


time (UTC)temp
F
wind
direction
speed
knots
gust
knots
rain 1hr
in
rain 24hr
in
rain mn
in
humidity
%
barometer
mb
20260508043336 39 266 0.0 0.0 0.00 0.00 0.00 39 1025.8
20260508041850 40 266 0.0 0.0 0.00 0.00 0.00 36 1025.8
20260508040343 40 266 0.0 1.7 0.00 0.00 0.00 31 1025.8
20260508034837 41 266 0.0 1.7 0.00 0.00 0.00 34 1025.9
20260508033332 42 266 0.0 0.0 0.00 0.00 0.00 29 1025.6
20260508031844 44 266 0.0 1.7 0.00 0.00 0.00 26 1025.5
20260508030317 47 266 0.0 2.6 0.00 0.00 0.00 25 1025.4
20260508024811 50 266 0.0 0.0 0.00 0.00 0.00 19 1025.2
20260508023326 52 266 0.0 7.0 0.00 0.00 0.00 15 1025.3
20260508021841 54 264 0.9 6.1 0.00 0.00 0.00 13 1024.8
20260508020314 55 280 2.6 8.7 0.00 0.00 0.00 12 1024.8
20260508014828 56 263 0.9 8.7 0.00 0.00 0.00 12 1024.7
20260508013324 58 286 3.5 8.7 0.00 0.00 0.00 11 1024.6
20260508011816 59 280 4.3 9.6 0.00 0.00 0.00 9 1024.7
20260508010314 62 267 2.6 7.8 0.00 0.00 0.00 9 1024.6
20260508004828 63 259 3.5 10.4 0.00 0.00 0.00 9 1024.5
20260508003324 64 12 3.5 8.7 0.00 0.00 0.00 10 1024.7
20260508001838 66 193 4.3 12.2 0.00 0.00 0.00 10 1024.6
20260508000327 65 291 5.2 10.4 0.00 0.00 0.00 11 1024.7
20260507234819 66 295 4.3 9.6 0.00 0.00 0.00 11 1024.9
20260507233314 66 239 4.3 9.6 0.00 0.00 0.00 10 1024.9
20260507231834 66 252 3.5 7.8 0.00 0.00 0.00 12 1024.7
20260507230327 66 206 3.5 12.2 0.00 0.00 0.00 11 1024.9
20260507224820 65 269 5.2 10.4 0.00 0.00 0.00 11 1025.1
20260507223336 66 251 3.5 11.3 0.00 0.00 0.00 11 1025.2
20260507221822 67 280 1.7 7.8 0.00 0.00 0.00 12 1025.2
20260507220317 66 249 4.3 11.3 0.00 0.00 0.00 12 1025.3
20260507214830 65 244 2.6 9.6 0.00 0.00 0.00 9 1025.5
20260507213325 65 173 6.1 13.0 0.00 0.00 0.00 12 1025.7
20260507211818 65 166 4.3 11.3 0.00 0.00 0.00 13 1026.0
20260507210331 65 263 4.3 9.6 0.00 0.00 0.00 10 1026.1
20260507204824 64 309 1.7 13.9 0.00 0.00 0.00 13 1026.3
20260507203318 63 182 3.5 9.6 0.00 0.00 0.00 14 1026.4
20260507201830 63 185 3.5 7.8 0.00 0.00 0.00 14 1026.5
20260507200324 61 276 3.5 10.4 0.00 0.00 0.00 13 1026.6
20260507194818 61 266 3.5 8.7 0.00 0.00 0.00 14 1026.9
20260507193314 61 187 3.5 10.4 0.00 0.00 0.00 17 1026.9
20260507191848 60 243 3.5 9.6 0.00 0.01 0.00 19 1027.0
20260507190320 59 260 3.5 10.4 0.00 0.01 0.00 24 1026.9
20260507184813 58 204 4.3 8.7 0.00 0.01 0.00 19 1027.0
20260507183329 57 285 0.9 8.7 0.00 0.01 0.00 18 1027.0
20260507181843 57 204 6.1 9.6 0.00 0.02 0.00 19 1027.1
20260507180315 56 179 2.6 8.7 0.00 0.02 0.00 21 1027.2
20260507174825 56 233 5.2 8.7 0.00 0.02 0.00 21 1027.3
20260507173325 55 226 4.3 6.1 0.00 0.02 0.00 22 1027.6
20260507171817 53 173 1.7 10.4 0.00 0.04 0.00 26 1027.7
20260507170355 52 149 4.3 8.7 0.00 0.04 0.00 27 1027.7
20260507164832 51 179 4.3 7.8 0.00 0.04 0.00 30 1027.7
20260507163320 49 174 3.5 8.7 0.00 0.04 0.00 30 1027.8
20260507161820 48 183 2.6 8.7 0.00 0.08 0.00 29 1027.8
20260507160334 47 213 1.7 7.0 0.00 0.08 0.00 31 1027.7
20260507154826 46 192 1.7 4.3 0.00 0.08 0.00 31 1027.5
20260507153314 45 181 2.6 7.0 0.00 0.08 0.00 35 1027.6
20260507151827 43 194 3.5 7.8 0.00 0.13 0.00 35 1027.5
20260507150322 42 220 1.7 6.1 0.00 0.13 0.00 38 1027.7
20260507144814 40 197 0.9 4.3 0.00 0.13 0.00 36 1027.6
20260507143330 35 54 0.0 2.6 0.00 0.13 0.00 45 1027.3
20260507141822 29 54 0.0 0.0 0.00 0.13 0.00 66 1027.3
20260507140316 26 54 0.0 0.0 0.00 0.13 0.00 77 1027.2
20260507134831 24 54 0.0 0.0 0.00 0.13 0.00 80 1027.2
20260507133326 23 54 0.0 0.0 0.00 0.13 0.00 79 1027.2
20260507131813 23 54 0.0 0.0 0.00 0.13 0.00 77 1027.2
20260507130327 23 54 0.0 0.0 0.00 0.13 0.00 77 1027.2
20260507124828 23 54 0.0 0.0 0.00 0.13 0.00 75 1027.0
20260507123316 23 54 1.7 2.6 0.00 0.13 0.00 75 1027.1
20260507121836 23 54 0.0 0.0 0.00 0.13 0.00 74 1027.3
20260507120323 24 54 0.0 0.0 0.00 0.13 0.00 73 1027.4
20260507114817 24 54 0.0 2.6 0.00 0.13 0.00 71 1027.2
20260507113317 25 54 0.0 0.0 0.00 0.13 0.00 70 1027.1
20260507111847 25 54 1.7 3.5 0.00 0.13 0.00 70 1027.2
20260507110325 26 54 1.7 2.6 0.00 0.13 0.00 66 1026.9
20260507104819 27 54 1.7 4.3 0.00 0.13 0.00 64 1026.9
20260507103314 27 56 3.5 5.2 0.00 0.13 0.00 61 1026.7
20260507101827 27 54 2.6 6.1 0.00 0.13 0.00 62 1026.7
20260507100321 28 54 2.6 4.3 0.00 0.13 0.00 61 1026.6
20260507094815 29 59 3.5 7.8 0.00 0.13 0.00 59 1026.6
20260507093331 29 58 4.3 7.8 0.00 0.13 0.00 59 1026.4
20260507091822 29 37 3.5 7.8 0.00 0.13 0.00 59 1026.4
20260507090315 28 28 3.5 6.1 0.00 0.13 0.00 61 1026.5
20260507084830 27 38 2.6 6.1 0.00 0.13 0.00 62 1026.5
20260507083325 25 29 1.7 6.1 0.00 0.13 0.00 71 1026.7
20260507081818 26 40 0.0 0.0 0.00 0.13 0.00 72 1026.9
20260507080312 27 40 0.0 0.0 0.00 0.13 0.00 69 1026.8
20260507074826 27 40 0.0 5.2 0.00 0.13 0.00 68 1026.9
20260507073322 26 48 1.7 6.1 0.00 0.13 0.00 70 1026.9
20260507071835 26 170 0.0 3.5 0.00 0.13 0.00 73 1026.9
20260507070330 26 170 0.0 2.6 0.00 0.13 0.00 72 1026.8
20260507064815 26 171 0.0 2.6 0.00 0.13 0.00 73 1026.6
20260507063339 26 171 0.0 2.6 0.00 0.13 0.00 71 1026.5
20260507061831 26 171 0.0 2.6 0.00 0.13 0.13 71 1026.5
20260507060318 27 171 0.0 0.0 0.00 0.13 0.13 69 1026.6
20260507054840 27 171 0.0 0.0 0.00 0.13 0.13 68 1026.6
20260507053335 28 171 0.0 0.0 0.00 0.13 0.13 64 1026.4
20260507051821 29 171 0.0 1.7 0.00 0.14 0.13 61 1026.2
20260507050316 30 171 0.0 4.3 0.00 0.14 0.13 59 1026.1
20260507044814 31 171 0.0 3.5 0.00 0.14 0.13 55 1026.1